Location: Choisy
(48.7685°N, 2.4187°E)
Time: 18:29:16
(UTC+00:00)

Envisat - Pass Details

Date: 02 March 2024
Orbit: 762 x 764 km, 98.3° (Epoch: 23 April)

Event Time Altitude Azimuth Distance (km) Brightness Sun altitude
Rises 03:02:21 0° 17° (NNE) 3,243 6.9 -33.7°
Reaches altitude 10° 03:04:43 10° 22° (NNE) 2,312 6.0 -33.4°
Enters shadow 03:08:23 43° 50° (NE) 1,075 4.0 -32.9°
